NW1E Weather Reports


time (UTC)temp
C
wind
direction
speed
KPH
gust
KPH
rain 1hr
cm
rain 24hr
cm
rain mn
cm
humidity
%
barometer
mb
20260503034306 22 251 0.0 1.6 0.00 1.02 1.02 92 1014.0
20260503033804 22 254 0.0 0.0 0.00 1.02 1.02 92 1014.0
20260503033304 22 252 0.0 0.0 0.00 1.02 1.02 92 1013.7
20260503032802 22 252 0.0 0.0 0.00 1.02 1.02 92 1013.5
20260503032304 22 252 0.0 0.0 0.03 1.02 1.02 92 1013.2
20260503031803 22 252 0.0 1.6 0.05 1.02 1.02 92 1013.0
20260503031304 22 264 0.0 3.2 0.08 1.02 1.02 92 1012.8
20260503030803 22 266 0.0 3.2 0.10 1.02 1.02 92 1013.1
20260503030304 22 269 0.0 0.0 0.13 1.02 1.02 92 1013.2
20260503025802 22 269 0.0 0.0 0.13 0.89 1.02 92 1013.2
20260503025552 22 265 0.0 0.0 0.13 0.89 1.02 92 1013.0
20260503024801 22 264 0.0 0.0 0.13 0.89 1.02 92 1012.9
20260503024259 22 197 0.0 6.4 0.13 0.89 1.02 92 1013.0
20260503023757 22 180 0.0 6.4 0.13 0.89 1.02 92 1012.3
20260503023257 22 193 1.6 4.8 0.13 0.89 1.02 92 1011.8
20260503022753 23 178 0.0 4.8 0.13 0.89 0.99 92 1012.2
20260503022251 23 206 0.0 1.6 0.10 0.89 0.99 92 1012.6
20260503022052 23 214 0.0 1.6 0.08 0.89 0.97 92 1013.1
20260503021614 23 0.0 0.0 0.05 0.89 0.94 92 1013.0
20260503020749 23 0.0 6.4 0.03 0.89 0.91 92 1013.2
20260503020251 23 231 1.6 9.7 0.00 0.89 0.89 92 1013.2
20260503015749 23 235 3.2 9.7 0.00 0.89 0.89 92 1013.2
20260503015250 23 0.0 0.0 0.00 0.89 0.89 92 1013.1
20260503014749 23 0.0 0.0 0.00 0.89 0.89 92 1013.0
20260503014246 23 0.0 0.0 0.00 0.89 0.89 92 1012.7
20260503014045 23 0.0 8.0 0.00 0.89 0.89 92 1012.0
20260503013540 23 164 1.6 8.0 0.00 0.89 0.89 92 1011.6
20260503012744 23 178 0.0 4.8 0.00 0.89 0.89 92 1012.1
20260503012248 23 231 0.0 8.0 0.00 0.89 0.89 92 1012.5
20260503011733 23 217 3.2 8.0 0.00 0.89 0.89 92 1012.6
20260503011231 23 197 0.0 4.8 0.00 0.89 0.89 92 1012.4
20260503010735 23 175 0.0 3.2 0.03 0.89 0.89 92 1012.2
20260503010525 22 172 0.0 1.6 0.05 0.89 0.89 92 1012.3
20260503005733 22 169 0.0 1.6 0.05 0.84 0.89 92 1012.3
20260503005232 22 169 0.0 0.0 0.05 0.84 0.89 92 1012.3
20260503005025 22 169 0.0 0.0 0.05 0.84 0.89 92 1012.2
20260503004234 22 169 0.0 0.0 0.05 0.84 0.89 92 1012.5
20260503003728 22 169 0.0 0.0 0.05 0.84 0.89 92 1012.2
20260503003227 22 169 0.0 0.0 0.08 0.84 0.89 91 1012.3
20260503002728 22 169 0.0 0.0 0.15 0.84 0.89 91 1012.3
20260503002228 22 169 0.0 0.0 0.15 0.84 0.89 91 1012.2
20260503001734 22 169 0.0 0.0 0.15 0.84 0.89 91 1012.1
20260503001228 22 169 0.0 0.0 0.15 0.84 0.89 91 1012.0
20260503000728 22 169 0.0 0.0 0.13 0.84 0.86 91 1012.3
20260503000228 22 169 0.0 1.6 0.10 0.84 0.84 91 1012.3
20260503000030 22 61 0.0 3.2 0.10 0.74 0.84 91 1012.0
20260502235225 23 56 0.0 3.2 0.10 0.74 0.84 91 1011.5
20260502234726 23 47 0.0 3.2 0.10 0.74 0.84 91 1011.7
20260502234221 23 30 0.0 0.0 0.10 0.74 0.84 91 1012.3
20260502233723 23 30 0.0 0.0 0.10 0.74 0.84 91 1012.3
20260502233205 23 289 0.0 0.0 0.08 0.74 0.81 91 1012.3
20260502233007 23 278 0.0 0.0 0.00 0.74 0.74 91 1012.6
20260502232514 23 272 0.0 0.0 0.00 0.74 0.74 90 1012.7
20260502231703 23 309 0.0 0.0 0.00 0.74 0.74 91 1012.5
20260502231203 23 312 0.0 0.0 0.10 0.74 0.74 91 1012.4
20260502230706 23 312 0.0 0.0 0.74 0.74 0.74 91 1012.4
20260502230204 23 320 0.0 0.0 0.74 0.74 0.74 91 1012.3
20260502225702 23 313 0.0 4.8 0.74 0.00 0.74 90 1012.2
20260502225203 23 329 0.0 4.8 0.74 0.00 0.74 90 1012.1
20260502224703 23 295 0.0 16.1 0.74 0.00 0.74 90 1012.0
20260502224515 23 312 4.8 17.7 0.74 0.00 0.74 90 1012.0
20260502223703 23 344 4.8 17.7 0.74 0.00 0.74 90 1012.0
20260502223204 23 321 6.4 14.5 0.74 0.00 0.74 90 1012.0
20260502222705 23 317 0.0 1.6 0.74 0.00 0.74 89 1012.0
20260502222205 23 314 0.0 9.7 0.74 0.00 0.74 88 1012.2
20260502222023 23 326 3.2 38.6 0.74 0.00 0.74 84 1012.0
20260502221201 25 341 8.0 38.6 0.64 0.00 0.58 78 1011.7
20260502220700 27 296 11.3 19.3 0.00 0.00 0.00 81 1012.0
20260502220159 28 265 14.5 20.9 0.00 0.00 0.00 81 1010.8
20260502215659 28 231 14.5 20.9 0.00 0.00 0.00 80 1010.7
20260502215201 28 262 12.9 27.4 0.00 0.00 0.00 80 1010.9
20260502214656 28 206 11.3 27.4 0.00 0.00 0.00 79 1010.8
20260502214158 28 244 11.3 20.9 0.00 0.00 0.00 79 1010.9
20260502213658 28 300 8.0 24.1 0.00 0.00 0.00 78 1011.1
20260502213308 28 233 3.2 20.9 0.00 0.00 0.00 79 1010.9
20260502213239 28 259 9.7 24.1 0.00 0.00 0.00 78 1011.1
20260502212138 28 259 8.0 20.9 0.00 0.00 0.00 78 1011.0
20260502211637 28 250 9.7 20.9 0.00 0.00 0.00 77 1010.9
20260502211136 28 250 11.3 24.1 0.00 0.00 0.00 76 1010.8
20260502210634 28 258 11.3 29.0 0.00 0.00 0.00 74 1010.7
20260502210132 28 247 12.9 29.0 0.00 0.00 0.00 73 1010.6
20260502205634 28 261 6.4 24.1 0.00 0.00 0.00 74 1010.6
20260502205431 28 264 14.5 24.1 0.00 0.00 0.00 73 1010.6
20260502204608 29 237 14.5 25.7 0.00 0.00 0.00 72 1010.7
20260502204106 29 298 9.7 25.7 0.00 0.00 0.00 72 1010.7
20260502203609 30 268 12.9 29.0 0.00 0.00 0.00 70 1010.6
20260502203106 30 268 16.1 30.6 0.00 0.00 0.00 69 1010.6
20260502202606 30 238 16.1 30.6 0.00 0.00 0.00 67 1010.5
20260502202104 31 243 12.9 32.2 0.00 0.00 0.00 68 1010.5
20260502201606 31 214 8.0 32.2 0.00 0.00 0.00 68 1010.6
20260502201408 31 264 11.3 22.5 0.00 0.00 0.00 69 1010.6
20260502200603 31 257 4.8 24.1 0.00 0.00 0.00 72 1010.5
20260502200107 30 245 14.5 32.2 0.00 0.00 0.00 71 1010.5
20260502195916 30 224 14.5 32.2 0.00 0.00 0.00 70 1010.6
20260502195101 30 247 22.5 32.2 0.00 0.00 0.00 71 1010.7
20260502195029 31 261 19.3 33.8 0.00 0.00 0.00 69 1010.7
20260502195022 30 254 16.1 33.8 0.00 0.00 0.00 70 1010.7
20260502193604 31 247 9.7 33.8 0.00 0.00 0.00 69 1010.7
20260502193104 31 220 20.9 32.2 0.00 0.00 0.00 67 1010.7
20260502192604 31 226 14.5 32.2 0.00 0.00 0.00 69 1010.8
20260502192103 31 255 16.1 32.2 0.00 0.00 0.00 70 1011.0
20260502191604 31 241 19.3 35.4 0.00 0.00 0.00 67 1011.1
20260502191104 31 248 3.2 35.4 0.00 0.00 0.00 70 1011.1
20260502190954 31 243 12.9 27.4 0.00 0.00 0.00 69 1011.1
20260502190112 31 265 16.1 27.4 0.00 0.00 0.00 69 1011.1
20260502185916 31 254 11.3 24.1 0.00 0.00 0.00 69 1011.2
20260502185409 31 245 12.9 30.6 0.00 0.00 0.00 70 1011.4
20260502184603 31 235 20.9 30.6 0.00 0.00 0.00 68 1011.3
20260502184104 31 240 12.9 25.7 0.00 0.00 0.00 70 1011.3
20260502183605 31 228 14.5 30.6 0.00 0.00 0.00 72 1011.3
20260502183103 31 268 19.3 33.8 0.00 0.00 0.00 72 1011.5
20260502182603 31 252 24.1 33.8 0.00 0.00 0.00 72 1011.7
20260502182101 31 237 17.7 29.0 0.00 0.00 0.00 71 1011.7
20260502181604 31 255 16.1 27.4 0.00 0.00 0.00 71 1011.7
20260502181104 31 276 6.4 27.4 0.00 0.00 0.00 73 1011.8
20260502180605 31 237 17.7 32.2 0.00 0.00 0.00 73 1011.9
20260502164031 31 252 16.1 35.4 0.00 0.00 0.00 71 1012.1
20260502163531 31 276 16.1 35.4 0.00 0.00 0.00 70 1012.0
20260502163034 31 231 11.3 29.0 0.00 0.00 0.00 70 1011.9
20260502162532 31 233 16.1 30.6 0.00 0.00 0.00 72 1011.9
20260502162030 31 227 22.5 35.4 0.00 0.00 0.00 70 1011.8
20260502161526 31 295 22.5 35.4 0.00 0.00 0.00 71 1011.9
20260502161029 31 268 17.7 33.8 0.00 0.00 0.00 69 1011.9
20260502160510 31 250 22.5 32.2 0.00 0.00 0.00 70 1011.7
20260502152245 31 212 22.5 32.2 0.00 0.00 0.00 70 1011.5
20260502151448 31 231 9.7 29.0 0.00 0.00 0.00 70 1011.5
20260502150948 30 223 16.1 33.8 0.00 0.00 0.00 69 1011.5
20260502150446 30 257 16.1 35.4 0.00 0.00 0.00 71 1011.2
20260502150257 30 212 20.9 41.8 0.00 0.00 0.00 70 1011.1
20260502130405 26 207 12.9 22.5 0.00 0.00 0.00 86 1010.8
20260502123351 24 193 3.2 14.5 0.00 0.00 0.00 91 1010.7
20260502122843 24 183 1.6 16.1 0.00 0.00 0.00 91 1010.7
20260502122346 23 186 8.0 16.1 0.00 0.00 0.00 92 1010.8
20260502121844 23 166 3.2 11.3 0.00 0.00 0.00 92 1010.8
20260502121344 23 166 0.0 4.8 0.00 0.00 0.00 92 1010.6
20260502120847 23 178 0.0 4.8 0.00 0.00 0.00 93 1010.6
20260502120343 22 173 0.0 4.8 0.00 0.00 0.00 93 1010.6
20260502115842 22 164 0.0 1.6 0.00 0.00 0.00 93 1010.7
20260502115341 22 162 0.0 0.0 0.00 0.00 0.00 93 1010.7
20260502114841 22 144 0.0 1.6 0.00 0.00 0.00 93 1010.6
20260502114344 21 166 0.0 4.8 0.00 0.00 0.00 93 1010.4
20260502113843 21 169 0.0 4.8 0.00 0.00 0.00 93 1010.6
20260502113343 21 154 0.0 0.0 0.00 0.00 0.00 93 1010.6
20260502112840 21 149 0.0 0.0 0.00 0.00 0.00 93 1010.5
20260502112341 21 149 0.0 0.0 0.00 0.00 0.00 93 1010.6
20260502111840 20 151 0.0 0.0 0.00 0.00 0.00 93 1010.6
20260502111641 20 151 0.0 0.0 0.00 0.00 0.00 93 1010.6
20260502110841 20 147 0.0 1.6 0.00 0.00 0.00 93 1010.6
20260502110343 20 147 0.0 1.6 0.00 0.00 0.00 93 1010.6
20260502105843 20 145 0.0 0.0 0.00 0.00 0.00 93 1010.5
20260502105340 20 145 0.0 0.0 0.00 0.00 0.00 93 1010.4
20260502104843 20 145 0.0 0.0 0.00 0.00 0.00 93 1010.4
20260502104334 20 147 0.0 0.0 0.00 0.00 0.00 93 1010.5
20260502104127 20 147 0.0 0.0 0.00 0.00 0.00 93 1010.5
20260502103628 20 147 0.0 3.2 0.00 0.00 0.00 92 1010.5
20260502103128 20 147 0.0 3.2 0.00 0.00 0.00 92 1010.6
20260502102648 20 148 0.0 0.0 0.00 0.00 0.00 92 1010.8
20260502102349 20 148 0.0 0.0 0.00 0.00 0.00 92 1010.8
20260502101331 20 148 0.0 0.0 0.00 0.00 0.00 92 1010.7
20260502101122 20 148 0.0 0.0 0.00 0.00 0.00 92 1010.7
20260502100334 20 148 0.0 0.0 0.00 0.00 0.00 92 1010.7
20260502090327 20 149 0.0 1.6 0.00 0.00 0.00 92 1010.9
20260502071242 20 257 0.0 0.0 0.00 0.00 0.00 93 1010.7
20260502071033 20 257 0.0 0.0 0.00 0.00 0.00 93 1010.7
20260502070240 20 257 0.0 0.0 0.00 0.00 0.00 92 1010.7
20260502065740 20 257 0.0 0.0 0.00 0.00 0.00 92 1010.7
20260502065239 20 257 0.0 0.0 0.00 0.00 0.00 92 1010.9
20260502064737 20 257 0.0 0.0 0.00 0.00 0.00 92 1010.8
20260502064238 20 0.0 0.0 0.00 0.00 0.00 92 1010.9
20260502063737 20 257 0.0 0.0 0.00 0.00 0.00 92 1011.0
20260502063236 20 257 0.0 0.0 0.00 0.00 0.00 92 1011.0
20260502063030 20 257 0.0 0.0 0.00 0.00 0.00 92 1011.1
20260502062235 20 257 0.0 0.0 0.00 0.00 0.00 92 1011.0
20260502061733 20 257 0.0 0.0 0.00 0.00 0.00 92 1011.1
20260502061230 20 257 0.0 0.0 0.00 0.00 0.00 92 1011.2
20260502060732 20 257 0.0 0.0 0.00 0.00 0.00 92 1011.2
20260502060231 20 257 0.0 0.0 0.00 0.00 0.00 92 1011.2
20260502055738 20 257 0.0 0.0 0.00 0.00 0.00 92 1011.1
20260502055232 20 257 0.0 0.0 0.00 0.00 0.00 92 1011.2
20260502054730 20 257 0.0 0.0 0.00 0.00 0.00 92 1011.4
20260502054401 20 257 0.0 0.0 0.00 0.00 0.00 92 1011.6
20260502054324 20 257 0.0 0.0 0.00 0.00 0.00 92 1011.4
20260502053228 20 257 0.0 0.0 0.00 0.00 0.00 91 1011.6
20260502053130 20 257 0.0 0.0 0.00 0.00 0.00 91 1011.7
20260502052800 20 257 0.0 0.0 0.00 0.00 0.00 92 1011.9
20260502051717 20 257 0.0 0.0 0.00 0.00 0.00 91 1011.8
20260502051213 20 257 0.0 0.0 0.00 0.00 0.00 91 1011.8
20260502050714 20 257 0.0 0.0 0.00 0.00 0.00 91 1011.9
20260502050211 20 257 0.0 0.0 0.00 0.00 0.00 91 1011.8
20260502050013 20 257 0.0 0.0 0.00 0.00 0.00 91 1012.0
20260502045207 20 257 0.0 0.0 0.00 0.00 0.00 90 1011.9
20260502044704 20 257 0.0 0.0 0.00 0.00 0.00 90 1011.9
20260502044204 20 257 0.0 0.0 0.00 0.00 0.00 90 1011.8
20260502043705 20 257 0.0 0.0 0.00 0.00 0.00 90 1011.9
20260502043204 20 257 0.0 0.0 0.00 0.00 0.00 90 1011.9
20260502042704 20 257 0.0 0.0 0.00 0.00 0.00 90 1011.8
20260502042204 20 257 0.0 0.0 0.00 0.00 0.00 89 1011.8
20260502041704 20 257 0.0 0.0 0.00 0.00 0.00 89 1011.8
20260502041202 21 257 0.0 0.0 0.00 0.00 0.00 90 1011.8
20260502040704 21 257 0.0 0.0 0.00 0.00 0.00 90 1011.8
20260502040201 21 257 0.0 0.0 0.00 0.00 0.00 89 1011.9
20260502035940 21 257 0.0 0.0 0.00 0.00 0.00 89 1011.9
20260502035150 21 257 0.0 0.0 0.00 0.00 0.00 90 1011.9
20260502035023 21 257 0.0 0.0 0.00 0.00 0.00 89 1011.8
20260502035016 21 257 0.0 0.0 0.00 0.00 0.00 89 1011.8